Location: Ash Swamp
(41.5170°N, 74.6157°W)
Time: 01:49:11
(UTC+00:00)

Cosmos 1992 Rocket - Pass Details

Date: 14 July 2020
Orbit: 758 x 766 km, 74.0° (Epoch: 14 August)

Event Time Altitude Azimuth Distance (km) Brightness Sun altitude
Rises 06:09:48 0° 334° (NNW) 3,242 7.9 -25.1°
Reaches altitude 10° 06:12:15 10° 329° (NNW) 2,312 7.0 -25.0°
Enters shadow 06:16:58 47° 267° (W) 1,009 4.4 -24.7°
